TimeCDT,TemperatureF,Dew PointF,Humidity,Sea Level PressureIn,VisibilityMPH,Wind Direction,Wind SpeedMPH,Gust SpeedMPH,PrecipitationIn,Events,Conditions,WindDirDegrees,DateUTC
12:53 AM,59.0,55.0,87,30.09,10.0,North,10.4,17.3,N/A,,Overcast,360,2012-10-06 05:53:00
1:53 AM,57.0,52.0,83,30.10,10.0,NNE,13.8,21.9,N/A,,Overcast,30,2012-10-06 06:53:00
2:17 AM,55.4,51.8,88,30.11,10.0,NNE,6.9,-,N/A,,Overcast,30,2012-10-06 07:17:00
2:53 AM,55.0,50.0,83,30.10,10.0,North,10.4,-,N/A,,Overcast,10,2012-10-06 07:53:00
3:53 AM,53.1,48.0,83,30.11,10.0,NNE,12.7,19.6,N/A,,Overcast,20,2012-10-06 08:53:00
4:53 AM,52.0,48.9,89,30.12,10.0,North,11.5,-,N/A,,Overcast,350,2012-10-06 09:53:00
5:23 AM,51.8,46.4,82,30.14,10.0,NNE,11.5,20.7,0.00,,Overcast,30,2012-10-06 10:23:00
5:34 AM,51.8,46.4,82,30.14,10.0,NNE,11.5,-,0.00,,Overcast,30,2012-10-06 10:34:00
5:53 AM,50.0,46.9,89,30.14,10.0,North,12.7,17.3,0.00,,Overcast,10,2012-10-06 10:53:00
6:18 AM,48.2,46.4,93,30.16,10.0,North,9.2,19.6,N/A,,Overcast,10,2012-10-06 11:18:00
6:53 AM,48.0,46.0,93,30.16,7.0,North,10.4,-,0.00,,Overcast,10,2012-10-06 11:53:00
7:29 AM,48.2,46.4,93,30.18,10.0,NNE,9.2,17.3,N/A,,Overcast,30,2012-10-06 12:29:00
7:53 AM,48.0,44.1,86,30.18,10.0,NNE,11.5,20.7,0.00,Rain,Light Rain,30,2012-10-06 12:53:00
8:53 AM,48.2,44.6,87,30.19,10.0,NNE,8.1,-,N/A,,Overcast,30,2012-10-06 13:53:00
9:53 AM,48.0,44.1,86,30.18,10.0,NNE,9.2,-,N/A,,Overcast,20,2012-10-06 14:53:00
10:53 AM,50.0,44.1,80,30.17,10.0,NNE,6.9,-,N/A,,Overcast,30,2012-10-06 15:53:00
11:39 AM,50.0,42.8,76,30.19,10.0,North,5.8,-,N/A,,Overcast,10,2012-10-06 16:39:00
11:53 AM,50.0,43.0,77,30.19,10.0,NNE,10.4,-,N/A,,Overcast,20,2012-10-06 16:53:00
12:53 PM,51.1,42.1,71,30.18,10.0,North,9.2,-,N/A,,Overcast,10,2012-10-06 17:53:00
1:37 PM,51.8,41.0,67,30.17,10.0,NNE,9.2,16.1,N/A,,Overcast,20,2012-10-06 18:37:00
1:53 PM,50.0,39.9,68,30.16,10.0,NE,10.4,19.6,N/A,,Overcast,40,2012-10-06 18:53:00
2:53 PM,52.0,42.1,69,30.14,10.0,North,6.9,-,0.00,,Overcast,360,2012-10-06 19:53:00
3:53 PM,51.8,39.2,62,30.15,10.0,North,10.4,-,N/A,,Overcast,360,2012-10-06 20:53:00
4:53 PM,50.0,39.9,68,30.14,10.0,North,9.2,-,N/A,,Overcast,10,2012-10-06 21:53:00
5:53 PM,48.0,41.0,77,30.15,10.0,NNE,10.4,-,N/A,,Overcast,20,2012-10-06 22:53:00
6:53 PM,46.0,41.0,83,30.18,10.0,North,6.9,-,N/A,,Overcast,10,2012-10-06 23:53:00
7:32 PM,46.4,41.0,81,30.19,10.0,NNE,4.6,-,N/A,,Overcast,20,2012-10-07 00:32:00
7:53 PM,46.0,41.0,83,30.20,10.0,NNW,4.6,-,N/A,,Overcast,340,2012-10-07 00:53:00
8:53 PM,46.9,41.0,80,30.19,10.0,NNE,3.5,-,N/A,,Overcast,20,2012-10-07 01:53:00
9:53 PM,46.9,41.0,80,30.23,10.0,NNW,6.9,-,N/A,,Overcast,330,2012-10-07 02:53:00
10:53 PM,46.0,42.1,86,30.22,10.0,North,5.8,-,N/A,,Overcast,360,2012-10-07 03:53:00
11:35 PM,46.4,42.8,87,30.23,10.0,North,10.4,17.3,0.00,,Overcast,360,2012-10-07 04:35:00
11:53 PM,46.0,41.0,83,30.22,10.0,North,10.4,-,0.00,,Overcast,10,2012-10-07 04:53:00